星链-5613 (STARLINK-5613 )

导读

STARLINK-5613是美国SpaceX公司星链(Starlink)低轨卫星互联网星座的卫星,于2023年3月3日发射入轨。星链计划计划在近地轨道部署上万颗卫星,旨在为全球提供高速低延迟的宽带互联网服务,目前已经覆盖全球上百个国家,拥有数百万活跃用户,是当前全球规模最大的低轨卫星互联网星座。

基本信息
目录编号:
55752
目录名称:
STARLINK-5613
国际标识:
2023-028M
轨道中心:
EARTH
卫星名称:
星链-5613
卫星全名:
星链-5613 (STARLINK-5613 )
卫星状态:
在轨 (已飞行1291 天)
发射日期:
2023-03-03 UTC
国别 :
美国 (US)
星等 :
--
该卫星已列入 空间交会检测服务 Space Conjunction Data Service (SCDS) ,当前飞行风险评估等级: 无高风险
轨道信息
数据来源 国际轨道数据 AOE轨道数据
星历时间 2026-09-13T16:27:53+0800
21小时前
查看轨道信息
2026-09-12T23:00:00+0800
1天前
查看轨道信息
半长轴 6950.187km 6950.192km
偏心率 0.0002619 0.0002835
轨道倾角 69.999° 70.000°
近地点辐角 270.954° 272.205°
升交点赤经 131.157° 132.992°
平近点角 89.132° 123.793°
近地点 570.229km 570.084km
远地点 573.871km 574.026km
周期 96.107分钟 96.107分钟
每日圈数 14.983321 14.983303
详细信息
固有亮度:
5
最大亮度:
2.5
卫星平台:
Starlink v1.5
覆盖范围:
全球
运营商:
太空探索技术公司
运营商所在国:
美国
制造商(研发单位):
太空探索技术公司
制造商所在国:
美国
使用方式:
暂无
卫星简介
星链(Starlink)计划是由太空探索技术公司(SpaceX)提出的一个巨型低轨卫星互联网星座项目,计划在2019年至2024年间在太空搭建由约1.2万颗卫星组成的“星链”网络,其中1584颗将部署在地球上空550千米处的近地轨道,并从2020年开始工作。该卫星仍在工作。
2D轨道图
3D轨道图
轨道高度分析图
轨道倾角分析图
轨道综合分析图
查看轨道综合分析图
交会数据列表
事件ID 空间交会对象 最接近时刻(TCA) 交会距离 交会风险概率(CRP) 交会风险指数(CRI) 操作
CDM_260915-130803-609005-575223
2026-09-15T
13:08:02+0000
2.050 km
极远距离
2.703941E-6 低风险 0.44
CDM_260916-041903-159805-575222
SKYMED 1 (31598)
2026-09-16T
04:19:43+0000
1.843 km
极远距离
1.89368E-6 低风险 0.41
与全量物体交会距离演化趋势 订阅飞行安全评估服务
与全量物体交会风险概率演化趋势 订阅飞行安全评估服务